TimeEDT,TemperatureF,Dew PointF,Humidity,Sea Level PressureIn,VisibilityMPH,Wind Direction,Wind SpeedMPH,Gust SpeedMPH,PrecipitationIn,Events,Conditions,WindDirDegrees,DateUTC
12:56 AM,64.9,63.0,93,30.18,4.0,SSW,3.5,-,N/A,,Partly Cloudy,210,2012-10-05 04:56:00
1:56 AM,66.0,63.0,90,30.18,5.0,Calm,Calm,-,N/A,,Scattered Clouds,0,2012-10-05 05:56:00
2:56 AM,64.9,62.1,90,30.17,6.0,Calm,Calm,-,N/A,,Mostly Cloudy,0,2012-10-05 06:56:00
3:56 AM,64.0,62.1,93,30.16,6.0,Calm,Calm,-,N/A,,Mostly Cloudy,0,2012-10-05 07:56:00
4:56 AM,64.9,63.0,93,30.15,6.0,Calm,Calm,-,N/A,,Mostly Cloudy,0,2012-10-05 08:56:00
5:56 AM,64.0,61.0,90,30.16,6.0,Calm,Calm,-,N/A,,Mostly Cloudy,0,2012-10-05 09:56:00
6:56 AM,64.0,61.0,90,30.17,6.0,West,3.5,-,N/A,,Mostly Cloudy,280,2012-10-05 10:56:00
7:56 AM,63.0,61.0,93,30.17,5.0,Calm,Calm,-,N/A,,Mostly Cloudy,0,2012-10-05 11:56:00
8:56 AM,66.0,63.0,90,30.17,4.0,Calm,Calm,-,N/A,,Mostly Cloudy,0,2012-10-05 12:56:00
9:56 AM,66.0,64.0,93,30.18,4.0,Calm,Calm,-,N/A,,Mostly Cloudy,0,2012-10-05 13:56:00
10:56 AM,70.0,64.9,84,30.17,5.0,Calm,Calm,-,N/A,,Haze,0,2012-10-05 14:56:00
11:56 AM,73.0,63.0,71,30.15,10.0,Calm,Calm,-,N/A,,Mostly Cloudy,0,2012-10-05 15:56:00
12:56 PM,75.9,62.1,62,30.14,10.0,Calm,Calm,-,N/A,,Mostly Cloudy,0,2012-10-05 16:56:00
1:56 PM,79.0,61.0,54,30.12,10.0,Calm,Calm,-,N/A,,Scattered Clouds,0,2012-10-05 17:56:00
2:56 PM,80.1,59.0,48,30.09,10.0,SSE,6.9,-,N/A,,Scattered Clouds,150,2012-10-05 18:56:00
3:56 PM,79.0,61.0,54,30.07,10.0,SE,5.8,-,N/A,,Mostly Cloudy,130,2012-10-05 19:56:00
4:56 PM,79.0,62.1,56,30.04,10.0,SE,4.6,-,N/A,,Mostly Cloudy,130,2012-10-05 20:56:00
5:56 PM,79.0,63.0,58,30.03,10.0,SSE,4.6,-,N/A,,Mostly Cloudy,150,2012-10-05 21:56:00
6:56 PM,75.9,63.0,64,30.03,10.0,ESE,4.6,-,N/A,,Scattered Clouds,120,2012-10-05 22:56:00
7:56 PM,73.9,64.0,71,30.03,10.0,Calm,Calm,-,N/A,,Scattered Clouds,0,2012-10-05 23:56:00
8:56 PM,71.1,64.0,78,30.04,10.0,Calm,Calm,-,N/A,,Clear,0,2012-10-06 00:56:00
9:56 PM,66.9,63.0,87,30.04,10.0,Calm,Calm,-,N/A,,Clear,0,2012-10-06 01:56:00
10:56 PM,66.9,64.0,90,30.04,7.0,Calm,Calm,-,N/A,Fog,Shallow Fog,0,2012-10-06 02:56:00
11:56 PM,64.9,62.1,90,30.03,8.0,Calm,Calm,-,N/A,Fog,Shallow Fog,0,2012-10-06 03:56:00